When you browse on this site, cookies collect data to enhance your experience and personalize the content and advertising you see.
Visit our Privacy Policy to learn more. By continuing to use the site, you agree to this use of cookies and data.
  • In Hungary
  • List of Countries
  • For 7 days
  • Water Temperature
  • Weather Map
  • News
  • Weather Widgets
  • user-avatar
    Login

    Hourly Weather Kapustyntsi

    Today, 15 December, Sunday

    Time Temperature Precipitation Wind Pressure Humidity
    00:00 +1°C° 0.5 mm 5 mps 744 mmHg 94%
    01:00 +2°C° 0.5 mm 5 mps 744 mmHg 94%
    02:00 +3°C° 0 mm 4 mps 744 mmHg 92%
    03:00 +2°C° 0.2 mm 5 mps 744 mmHg 91%
    04:00 +2°C° 0.2 mm 5 mps 743 mmHg 91%
    05:00 +2°C° 0.2 mm 6 mps 743 mmHg 90%
    06:00 +2°C° 0.5 mm 5 mps 743 mmHg 92%
    07:00 +2°C° 0.5 mm 5 mps 743 mmHg 94%
    08:00 +3°C° 0 mm 4 mps 743 mmHg 94%
    09:00 +3°C° 1.4 mm 4 mps 743 mmHg 94%
    10:00 +3°C° 1.4 mm 4 mps 743 mmHg 94%
    11:00 +4°C° 1.4 mm 4 mps 744 mmHg 95%
    12:00 +4°C° 0.1 mm 4 mps 744 mmHg 87%
    13:00 +5°C° 0.1 mm 4 mps 745 mmHg 80%
    14:00 +5°C° 0.1 mm 4 mps 745 mmHg 72%
    15:00 +4°C° 0 mm 4 mps 746 mmHg 76%
    16:00 +3°C° 0 mm 4 mps 747 mmHg 79%
    17:00 +2°C° 0 mm 3 mps 747 mmHg 82%
    18:00 +2°C° 0 mm 3 mps 748 mmHg 84%
    19:00 +2°C° 0 mm 3 mps 749 mmHg 86%
    20:00 +2°C° 0 mm 3 mps 749 mmHg 88%
    21:00 +2°C° 0 mm 3 mps 749 mmHg 89%
    22:00 +1°C° 0 mm 3 mps 750 mmHg 89%
    23:00 +1°C° 0 mm 3 mps 750 mmHg 90%

    Tomorrow, 16 December, Monday

    Time Temperature Precipitation Wind Pressure Humidity
    00:00 +1°C° 0 mm 3 mps 750 mmHg 89%
    01:00 0°C° 0 mm 4 mps 750 mmHg 88%
    02:00 0°C° 0 mm 4 mps 750 mmHg 87%
    03:00 0°C° 0 mm 4 mps 750 mmHg 85%
    04:00 +1°C° 0 mm 4 mps 750 mmHg 84%
    05:00 +1°C° 0 mm 5 mps 750 mmHg 82%
    06:00 +2°C° 0 mm 5 mps 750 mmHg 80%
    07:00 +3°C° 0 mm 4 mps 751 mmHg 78%
    08:00 +3°C° 0 mm 4 mps 751 mmHg 76%
    09:00 +4°C° 0 mm 4 mps 751 mmHg 74%
    10:00 +5°C° 0 mm 4 mps 751 mmHg 72%
    11:00 +5°C° 0 mm 4 mps 752 mmHg 70%
    12:00 +5°C° 0 mm 4 mps 752 mmHg 70%
    13:00 +5°C° 0 mm 4 mps 752 mmHg 71%
    14:00 +7°C° 0 mm 3 mps 752 mmHg 71%
    15:00 +5°C° 0 mm 3 mps 752 mmHg 75%
    16:00 +4°C° 0 mm 3 mps 752 mmHg 80%
    17:00 +3°C° 0 mm 3 mps 753 mmHg 84%
    18:00 +3°C° 0 mm 3 mps 753 mmHg 86%
    19:00 +4°C° 0 mm 2 mps 753 mmHg 87%
    20:00 +4°C° 0 mm 2 mps 753 mmHg 89%
    21:00 +4°C° 0 mm 2 mps 754 mmHg 89%
    22:00 +4°C° 0 mm 2 mps 754 mmHg 89%
    23:00 +4°C° 0 mm 1 mps 754 mmHg 89%

    Day after tomorrow, 17 December, Tuesday

    Time Temperature Precipitation Wind Pressure Humidity
    00:00 +4°C° 0 mm 1 mps 754 mmHg 89%
    01:00 +4°C° 0 mm 1 mps 754 mmHg 89%
    02:00 +3°C° 0 mm 2 mps 754 mmHg 89%
    03:00 +3°C° 0 mm 2 mps 754 mmHg 89%
    04:00 +4°C° 0 mm 2 mps 754 mmHg 89%
    05:00 +4°C° 0 mm 2 mps 754 mmHg 89%
    06:00 +3°C° 0 mm 2 mps 754 mmHg 90%
    07:00 +2°C° 0 mm 3 mps 754 mmHg 90%
    08:00 +2°C° 0 mm 3 mps 754 mmHg 90%
    09:00 +3°C° 0 mm 3 mps 754 mmHg 86%
    10:00 +4°C° 0 mm 4 mps 754 mmHg 81%
    11:00 +5°C° 0 mm 4 mps 754 mmHg 77%
    12:00 +5°C° 0 mm 4 mps 754 mmHg 76%
    13:00 +6°C° 0 mm 4 mps 753 mmHg 75%
    14:00 +6°C° 0 mm 4 mps 753 mmHg 74%
    15:00 +5°C° 0 mm 4 mps 753 mmHg 78%
    16:00 +5°C° 0 mm 4 mps 753 mmHg 81%
    17:00 +4°C° 0 mm 3 mps 752 mmHg 85%
    18:00 +4°C° 0 mm 4 mps 752 mmHg 84%
    19:00 +4°C° 0 mm 4 mps 752 mmHg 83%
    20:00 +3°C° 0 mm 4 mps 752 mmHg 82%
    21:00 +3°C° 0 mm 4 mps 752 mmHg 81%
    22:00 +3°C° 0 mm 4 mps 752 mmHg 81%
    23:00 +3°C° 0 mm 4 mps 752 mmHg 80%

    18 December, Wednesday

    Time Temperature Precipitation Wind Pressure Humidity
    00:00 +3°C° 0 mm 3 mps 752 mmHg 81%
    01:00 +2°C° 0 mm 3 mps 752 mmHg 82%
    02:00 +2°C° 0 mm 3 mps 752 mmHg 83%
    03:00 +2°C° 0 mm 3 mps 752 mmHg 83%
    04:00 +2°C° 0 mm 3 mps 752 mmHg 84%
    05:00 +2°C° 0 mm 3 mps 752 mmHg 84%
    06:00 +2°C° 0 mm 3 mps 752 mmHg 84%
    07:00 +2°C° 0 mm 3 mps 752 mmHg 85%
    08:00 +3°C° 0 mm 2 mps 752 mmHg 85%
    09:00 +3°C° 0 mm 3 mps 752 mmHg 80%
    10:00 +4°C° 0 mm 3 mps 752 mmHg 75%
    11:00 +5°C° 0 mm 3 mps 752 mmHg 70%
    12:00 +7°C° 0 mm 3 mps 752 mmHg 69%
    13:00 +7°C° 0 mm 3 mps 752 mmHg 68%
    14:00 +7°C° 0 mm 3 mps 751 mmHg 67%
    15:00 +7°C° 0 mm 3 mps 751 mmHg 69%
    16:00 +5°C° 0 mm 3 mps 751 mmHg 72%
    17:00 +6°C° 0 mm 2 mps 752 mmHg 74%
    18:00 +4°C° 0 mm 3 mps 752 mmHg 75%
    19:00 +4°C° 0 mm 3 mps 752 mmHg 76%
    20:00 +4°C° 0 mm 3 mps 752 mmHg 76%
    21:00 +4°C° 0 mm 3 mps 752 mmHg 76%
    22:00 +4°C° 0 mm 3 mps 752 mmHg 76%
    23:00 +4°C° 0 mm 3 mps 752 mmHg 75%

    19 December, Thursday

    Time Temperature Precipitation Wind Pressure Humidity
    00:00 +4°C° 0 mm 3 mps 752 mmHg 75%
    01:00 +4°C° 0 mm 3 mps 752 mmHg 75%
    02:00 +3°C° 0 mm 3 mps 752 mmHg 76%
    03:00 +3°C° 0 mm 3 mps 751 mmHg 76%
    04:00 +3°C° 0 mm 3 mps 751 mmHg 76%
    05:00 +3°C° 0 mm 3 mps 751 mmHg 77%
    06:00 +3°C° 0 mm 3 mps 751 mmHg 78%
    07:00 +3°C° 0 mm 3 mps 751 mmHg 78%
    08:00 +3°C° 0 mm 3 mps 751 mmHg 79%
    09:00 +4°C° 0 mm 3 mps 751 mmHg 75%
    10:00 +5°C° 0 mm 3 mps 751 mmHg 72%
    11:00 +7°C° 0 mm 3 mps 751 mmHg 69%
    12:00 +7°C° 0 mm 3 mps 751 mmHg 67%
    13:00 +7°C° 0 mm 3 mps 750 mmHg 66%
    14:00 +8°C° 0 mm 3 mps 750 mmHg 65%
    15:00 +7°C° 0 mm 2 mps 750 mmHg 67%
    16:00 +6°C° 0 mm 2 mps 750 mmHg 69%
    17:00 +6°C° 0 mm 2 mps 750 mmHg 72%
    18:00 +6°C° 0 mm 2 mps 749 mmHg 72%
    19:00 +5°C° 0 mm 2 mps 749 mmHg 73%
    20:00 +6°C° 0 mm 1 mps 749 mmHg 74%
    21:00 +6°C° 0 mm 1 mps 749 mmHg 75%
    22:00 +6°C° 0 mm 1 mps 749 mmHg 75%
    23:00 +6°C° 0 mm 1 mps 749 mmHg 76%

    20 December, Friday

    Time Temperature Precipitation Wind Pressure Humidity
    00:00 +6°C° 0 mm 1 mps 749 mmHg 78%
    01:00 +4°C° 0 mm 0 mps 748 mmHg 79%
    02:00 +4°C° 0 mm 0 mps 748 mmHg 81%
    03:00 +4°C° 0 mm 0 mps 748 mmHg 81%
    04:00 +5°C° 0 mm 1 mps 748 mmHg 82%
    05:00 +5°C° 0 mm 1 mps 748 mmHg 82%
    06:00 +5°C° 0 mm 1 mps 748 mmHg 84%
    07:00 +4°C° 0 mm 1 mps 748 mmHg 85%
    08:00 +3°C° 0 mm 2 mps 748 mmHg 87%
    09:00 +4°C° 0 mm 2 mps 748 mmHg 87%
    10:00 +3°C° 0 mm 3 mps 748 mmHg 86%
    11:00 +4°C° 0 mm 3 mps 748 mmHg 86%
    12:00 +4°C° 0 mm 3 mps 747 mmHg 87%
    13:00 +4°C° 0 mm 3 mps 746 mmHg 88%
    14:00 +4°C° 0 mm 3 mps 746 mmHg 89%
    15:00 +4°C° 0 mm 3 mps 746 mmHg 91%
    16:00 +4°C° 0 mm 3 mps 746 mmHg 92%
    17:00 +3°C° 0 mm 4 mps 746 mmHg 94%
    18:00 +4°C° 0 mm 4 mps 745 mmHg 94%
    19:00 +4°C° 0 mm 4 mps 745 mmHg 94%
    20:00 +4°C° 0 mm 4 mps 745 mmHg 93%
    21:00 +4°C° 0 mm 4 mps 745 mmHg 93%
    22:00 +4°C° 0 mm 4 mps 745 mmHg 92%
    23:00 +4°C° 0 mm 4 mps 745 mmHg 91%
    Show more